Flag for Greece Weather past 2 weeks in Preveza, Greece

Now
79 °F

Broken clouds.


Feels Like: 80 °F
Forecast: 67 / 81 °F
Wind: 8 mph from Northeast

Location: Aktion Airport

Current Time: Jun 30, 2015 at 4:29:33 PM

Latest Report: Jun 30, 2015 at 3:50 PM


Visibility: N/A

Pressure: 30.04 "Hg

Humidity: 48%

Dew point: 57 °F

Location of PrevezaLocation

Historic Weather in Preveza — Graph

°F

Preveza temperature yesterday

Maximum temperature yesterday: 81 °F (at 12:50 PM)
Minimum temperature yesterday: 66 °F (at 12:50 AM)
Average temperature yesterday: 74 °F

Past Weeks' High & Low Weather Summary

 TemperatureHumidityPressure
High86 °F (Jun 15, 2:50 PM)100% (Jun 27, 4:50 AM)30.04 "Hg (Jun 27, 4:50 AM)
Low61 °F (Jun 24, 5:50 AM)26% (Jun 27, 3:20 PM)29.71 "Hg (Jun 18, 4:50 AM)
Average75 °F64%29.91 "Hg
* Reported Jun 15 2:20 PM — Jun 30 2:50 PM, Preveza, Weather by CustomWeather, © 2015

Note: Actual official high and low records may vary slightly from our data, if they occured in-between our weather recording intervals... More about our weather records

Advertising

Preveza weather history for previous 24 hours

 ConditionsComfort  
Time TempWeatherWind HumidityBarometerVisibility
2:50 PM
Tue, Jun 30
81 °FScattered clouds.10 mph54%30.04 "HgN/A
2:20 PM81 °FBroken clouds.12 mph58%30.04 "HgN/A
1:50 PM82 °FBroken clouds.13 mph51%30.04 "HgN/A
1:20 PM79 °FBroken clouds.12 mph54%30.04 "HgN/A
12:50 PM79 °FBroken clouds.9 mph58%30.04 "HgN/A
12:20 PM77 °FBroken clouds.8 mph65%30.04 "HgN/A
11:50 AM79 °FBroken clouds.7 mph54%30.04 "HgN/A
11:20 AM79 °FBroken clouds.No wind54%30.04 "HgN/A
10:50 AM79 °FBroken clouds.No wind54%30.04 "HgN/A
10:20 AM79 °FBroken clouds.No wind54%30.04 "HgN/A
9:50 AM75 °FBroken clouds.No wind61%30.04 "HgN/A
9:20 AM75 °FBroken clouds.No wind61%30.04 "HgN/A
8:50 AM75 °FBroken clouds.5 mph57%30.04 "HgN/A
8:20 AM73 °FBroken clouds.5 mph74%30.04 "HgN/A
7:50 AM70 °FBroken clouds.No wind83%30.04 "HgN/A
7:20 AM70 °FBroken clouds.3 mph78%30.01 "HgN/A
6:50 AM68 °FPartly cloudy.No wind83%30.01 "HgN/A
6:20 AM68 °FPassing clouds.No wind83%30.01 "HgN/A
5:50 AM68 °FPassing clouds.5 mph78%30.01 "HgN/A
4:50 AM68 °FPassing clouds.No wind83%30.01 "HgN/A
3:50 AM66 °FPassing clouds.5 mph83%30.04 "HgN/A
2:50 AM68 °FPassing clouds.5 mph78%30.04 "HgN/A
1:50 AM70 °FPassing clouds.6 mph78%30.04 "HgN/A
12:50 AM68 °FPassing clouds.No wind78%30.04 "HgN/A
11:50 PM
Mon, Jun 29
70 °FPassing clouds.5 mph78%30.04 "HgN/A
10:50 PM72 °FPassing clouds.3 mph69%30.04 "HgN/A
9:50 PM72 °FScattered clouds.No wind69%30.04 "HgN/A
8:50 PM73 °FScattered clouds.No wind65%30.04 "HgN/A
8:20 PM73 °FBroken clouds.5 mph69%30.04 "HgN/A
7:50 PM73 °FBroken clouds.5 mph69%30.01 "HgN/A
7:20 PM75 °FBroken clouds.7 mph65%30.01 "HgN/A
6:50 PM77 °FPartly sunny.8 mph65%30.01 "HgN/A
6:20 PM77 °FPartly sunny.12 mph65%30.01 "HgN/A
5:50 PM79 °FScattered clouds.12 mph61%30.01 "HgN/A
5:20 PM79 °FScattered clouds.13 mph61%30.01 "HgN/A
4:50 PM81 °FScattered clouds.12 mph58%30.01 "HgN/A
4:20 PM79 °FScattered clouds.13 mph58%29.98 "HgN/A
Weather by CustomWeather, © 2015

See weather overviewHow to use our weather pages